Time,TemperatureF,DewpointF,PressureIn,WindDirection,WindDirectionDegrees,WindSpeedMPH,WindSpeedGustMPH,Humidity,HourlyPrecipIn,Conditions,Clouds,dailyrainin,SoftwareType,DateUTC
2013-09-13 00:00:00,62.9,50.1,30.16,NNW,338,0.0,2.6,63,0.00,,,0.00,WUHU216HW,2013-09-13 04:00:00,
2013-09-13 00:01:00,62.9,50.1,30.16,NNW,338,0.0,2.6,63,0.00,,,0.00,WUHU216HW,2013-09-13 04:01:00,
2013-09-13 00:06:00,62.7,49.9,30.16,NE,45,1.7,1.7,63,0.00,,,0.00,WUHU216HW,2013-09-13 04:06:00,
2013-09-13 00:11:00,62.6,49.8,30.16,North,0,2.0,2.0,63,0.00,,,0.00,WUHU216HW,2013-09-13 04:11:00,
2013-09-13 00:16:00,62.4,49.6,30.16,NE,45,0.6,6.0,63,0.00,,,0.00,WUHU216HW,2013-09-13 04:16:00,
2013-09-13 00:21:00,62.2,49.8,30.16,NNE,23,1.5,6.0,64,0.00,,,0.00,WUHU216HW,2013-09-13 04:21:00,
2013-09-13 00:26:00,62.2,49.8,30.16,North,0,1.1,2.4,64,0.00,,,0.00,WUHU216HW,2013-09-13 04:26:00,
2013-09-13 00:31:00,61.8,49.5,30.16,NE,45,2.0,2.0,64,0.00,,,0.00,WUHU216HW,2013-09-13 04:31:00,
2013-09-13 00:36:00,61.8,49.5,30.16,NE,45,0.0,2.0,64,0.00,,,0.00,WUHU216HW,2013-09-13 04:36:00,
2013-09-13 00:41:00,61.7,49.4,30.16,North,0,5.8,5.8,64,0.00,,,0.00,WUHU216HW,2013-09-13 04:41:00,
2013-09-13 00:46:00,61.5,49.2,30.17,NE,45,0.0,5.8,64,0.00,,,0.00,WUHU216HW,2013-09-13 04:46:00,
2013-09-13 00:51:00,61.5,49.6,30.17,NE,45,0.0,1.5,65,0.00,,,0.00,WUHU216HW,2013-09-13 04:51:00,
2013-09-13 00:56:00,61.3,49.4,30.16,NE,45,0.0,4.2,65,0.00,,,0.00,WUHU216HW,2013-09-13 04:56:00,
2013-09-13 01:01:00,61.3,49.4,30.16,NE,45,0.0,4.2,65,0.00,,,0.00,WUHU216HW,2013-09-13 05:01:00,
2013-09-13 01:06:00,61.1,49.3,30.16,North,0,0.0,0.0,65,0.00,,,0.00,WUHU216HW,2013-09-13 05:06:00,
2013-09-13 01:11:00,60.9,49.1,30.16,North,0,0.0,3.8,65,0.00,,,0.00,WUHU216HW,2013-09-13 05:11:00,
2013-09-13 01:16:00,60.9,49.1,30.17,ENE,68,0.0,3.8,65,0.00,,,0.00,WUHU216HW,2013-09-13 05:16:00,
2013-09-13 01:21:00,60.6,49.2,30.17,NE,45,2.0,2.0,66,0.00,,,0.00,WUHU216HW,2013-09-13 05:21:00,
2013-09-13 01:26:00,60.6,49.2,30.17,NE,45,0.0,2.0,66,0.00,,,0.00,WUHU216HW,2013-09-13 05:26:00,
2013-09-13 01:31:00,60.6,49.2,30.17,NE,45,0.0,1.1,66,0.00,,,0.00,WUHU216HW,2013-09-13 05:31:00,
2013-09-13 01:36:00,60.6,49.2,30.17,NNE,23,0.0,1.1,66,0.00,,,0.00,WUHU216HW,2013-09-13 05:36:00,
2013-09-13 01:41:00,60.4,49.0,30.17,ENE,68,0.0,1.3,66,0.00,,,0.00,WUHU216HW,2013-09-13 05:41:00,
2013-09-13 01:46:00,60.4,49.0,30.17,ENE,68,0.0,1.3,66,0.00,,,0.00,WUHU216HW,2013-09-13 05:46:00,
2013-09-13 01:51:00,60.4,48.6,30.17,ESE,113,0.0,0.0,65,0.00,,,0.00,WUHU216HW,2013-09-13 05:51:00,
2013-09-13 01:56:00,60.0,48.2,30.17,ENE,68,0.0,1.1,65,0.00,,,0.00,WUHU216HW,2013-09-13 05:56:00,
2013-09-13 02:01:00,60.0,48.2,30.17,ENE,68,0.0,1.1,65,0.00,,,0.00,WUHU216HW,2013-09-13 06:01:00,
2013-09-13 02:06:00,59.9,48.1,30.17,NE,45,0.0,0.0,65,0.00,,,0.00,WUHU216HW,2013-09-13 06:06:00,
2013-09-13 02:11:00,59.7,47.9,30.18,ENE,68,0.0,0.0,65,0.00,,,0.00,WUHU216HW,2013-09-13 06:11:00,
2013-09-13 02:16:00,59.7,47.9,30.17,ENE,68,0.0,0.0,65,0.00,,,0.00,WUHU216HW,2013-09-13 06:16:00,
2013-09-13 02:21:00,59.7,47.9,30.18,East,90,0.0,0.0,65,0.00,,,0.00,WUHU216HW,2013-09-13 06:21:00,
2013-09-13 02:26:00,59.5,47.7,30.17,North,0,0.0,1.1,65,0.00,,,0.00,WUHU216HW,2013-09-13 06:26:00,
2013-09-13 02:31:00,59.5,47.7,30.18,NE,45,0.0,1.1,65,0.00,,,0.00,WUHU216HW,2013-09-13 06:31:00,
2013-09-13 02:36:00,59.5,47.7,30.18,ENE,68,0.0,0.0,65,0.00,,,0.00,WUHU216HW,2013-09-13 06:36:00,
2013-09-13 02:41:00,59.3,47.5,30.17,ENE,68,0.0,0.0,65,0.00,,,0.00,WUHU216HW,2013-09-13 06:41:00,
2013-09-13 02:46:00,59.3,47.5,30.17,ENE,68,0.0,0.0,65,0.00,,,0.00,WUHU216HW,2013-09-13 06:46:00,
2013-09-13 02:51:00,59.1,47.3,30.17,NE,45,0.0,0.0,65,0.00,,,0.00,WUHU216HW,2013-09-13 06:51:00,
2013-09-13 02:56:00,59.1,47.8,30.17,North,0,0.0,0.0,66,0.00,,,0.00,WUHU216HW,2013-09-13 06:56:00,
2013-09-13 03:01:00,59.0,47.6,30.17,NNE,23,0.0,0.0,66,0.00,,,0.00,WUHU216HW,2013-09-13 07:01:00,
2013-09-13 03:06:00,58.8,47.4,30.17,NE,45,0.0,0.0,66,0.00,,,0.00,WUHU216HW,2013-09-13 07:06:00,
2013-09-13 03:11:00,58.6,47.2,30.18,NNE,23,0.0,0.0,66,0.00,,,0.00,WUHU216HW,2013-09-13 07:11:00,
2013-09-13 03:16:00,58.6,47.2,30.17,NNE,23,0.0,0.0,66,0.00,,,0.00,WUHU216HW,2013-09-13 07:16:00,
2013-09-13 03:21:00,58.6,47.4,30.17,NNE,23,0.0,0.0,67,0.00,,,0.00,WUHU216HW,2013-09-13 07:21:00,
2013-09-13 03:26:00,58.6,47.6,30.17,NNE,23,0.0,0.6,67,0.00,,,0.00,WUHU216HW,2013-09-13 07:26:00,
2013-09-13 03:31:00,58.6,47.6,30.17,NE,45,0.0,6.2,67,0.00,,,0.00,WUHU216HW,2013-09-13 07:31:00,
2013-09-13 03:36:00,58.6,47.6,30.18,ENE,68,0.0,6.2,67,0.00,,,0.00,WUHU216HW,2013-09-13 07:36:00,
2013-09-13 03:41:00,58.8,47.8,30.17,NNW,338,2.2,4.6,67,0.00,,,0.00,WUHU216HW,2013-09-13 07:41:00,
2013-09-13 03:46:00,58.8,47.4,30.17,NE,45,0.0,2.2,66,0.00,,,0.00,WUHU216HW,2013-09-13 07:46:00,
2013-09-13 03:51:00,59.0,47.6,30.17,NNE,23,0.0,2.2,66,0.00,,,0.00,WUHU216HW,2013-09-13 07:51:00,
2013-09-13 03:56:00,59.0,48.0,30.17,North,0,0.0,0.0,67,0.00,,,0.00,WUHU216HW,2013-09-13 07:56:00,
2013-09-13 04:01:00,59.1,47.8,30.17,North,0,1.7,1.7,66,0.00,,,0.00,WUHU216HW,2013-09-13 08:01:00,
2013-09-13 04:06:00,59.1,47.8,30.18,ESE,113,0.0,1.7,66,0.00,,,0.00,WUHU216HW,2013-09-13 08:06:00,
2013-09-13 04:11:00,58.8,47.4,30.18,ENE,68,0.0,0.0,66,0.00,,,0.00,WUHU216HW,2013-09-13 08:11:00,
2013-09-13 04:16:00,58.6,47.2,30.18,ENE,68,0.0,0.0,66,0.00,,,0.00,WUHU216HW,2013-09-13 08:16:00,
2013-09-13 04:21:00,58.4,47.1,30.17,ENE,68,0.0,0.0,66,0.00,,,0.00,WUHU216HW,2013-09-13 08:21:00,
2013-09-13 04:26:00,58.2,46.9,30.18,ENE,68,0.0,0.0,66,0.00,,,0.00,WUHU216HW,2013-09-13 08:26:00,
2013-09-13 04:31:00,58.1,46.7,30.17,ENE,68,0.0,0.0,66,0.00,,,0.00,WUHU216HW,2013-09-13 08:31:00,
2013-09-13 04:36:00,57.7,46.5,30.17,ENE,68,0.0,0.0,66,0.00,,,0.00,WUHU216HW,2013-09-13 08:36:00,
2013-09-13 04:41:00,57.7,46.4,30.17,ENE,68,0.0,0.0,66,0.00,,,0.00,WUHU216HW,2013-09-13 08:41:00,
2013-09-13 04:46:00,57.7,46.4,30.17,NNE,23,0.0,0.0,66,0.00,,,0.00,WUHU216HW,2013-09-13 08:46:00,
2013-09-13 04:51:00,57.7,46.4,30.17,ENE,68,0.0,0.0,66,0.00,,,0.00,WUHU216HW,2013-09-13 08:51:00,
2013-09-13 04:56:00,57.5,46.6,30.17,ENE,68,0.0,0.0,67,0.00,,,0.00,WUHU216HW,2013-09-13 08:56:00,
2013-09-13 05:01:00,57.3,46.4,30.17,ENE,68,0.0,0.0,67,0.00,,,0.00,WUHU216HW,2013-09-13 09:01:00,
2013-09-13 05:06:00,57.2,46.2,30.18,ENE,68,0.0,0.0,67,0.00,,,0.00,WUHU216HW,2013-09-13 09:06:00,
2013-09-13 05:11:00,57.0,46.1,30.18,ESE,113,1.3,1.3,67,0.00,,,0.00,WUHU216HW,2013-09-13 09:11:00,
2013-09-13 05:16:00,57.0,46.1,30.18,NE,45,0.0,1.3,67,0.00,,,0.00,WUHU216HW,2013-09-13 09:16:00,
2013-09-13 05:21:00,57.0,46.1,30.17,ENE,68,0.0,0.0,67,0.00,,,0.00,WUHU216HW,2013-09-13 09:21:00,
2013-09-13 05:26:00,56.8,45.9,30.17,ENE,68,0.0,0.0,67,0.00,,,0.00,WUHU216HW,2013-09-13 09:26:00,
2013-09-13 05:31:00,56.8,45.9,30.17,NE,45,0.0,0.0,67,0.00,,,0.00,WUHU216HW,2013-09-13 09:31:00,
2013-09-13 05:35:00,56.4,45.6,30.18,ENE,68,0.0,0.0,67,0.00,,,0.00,WUHU216HW,2013-09-13 09:35:00,
2013-09-13 05:40:00,56.4,45.6,30.18,ENE,68,0.0,0.0,67,0.00,,,0.00,WUHU216HW,2013-09-13 09:40:00,
2013-09-13 05:45:00,56.4,45.6,30.18,ENE,68,0.0,2.0,67,0.00,,,0.00,WUHU216HW,2013-09-13 09:45:00,
2013-09-13 05:50:00,56.3,45.0,30.18,East,90,0.0,2.0,66,0.00,,,0.00,WUHU216HW,2013-09-13 09:50:00,
2013-09-13 05:55:00,56.1,44.8,30.18,NNE,23,0.0,0.0,66,0.00,,,0.00,WUHU216HW,2013-09-13 09:55:00,
2013-09-13 06:00:00,56.1,44.8,30.18,NNE,23,0.0,0.0,66,0.00,,,0.00,WUHU216HW,2013-09-13 10:00:00,
2013-09-13 06:05:00,56.1,44.8,30.18,ENE,68,0.0,0.0,66,0.00,,,0.00,WUHU216HW,2013-09-13 10:05:00,
2013-09-13 06:10:00,55.9,44.7,30.18,NE,45,0.0,0.0,66,0.00,,,0.00,WUHU216HW,2013-09-13 10:10:00,
2013-09-13 06:15:00,55.9,44.7,30.18,NE,45,0.0,0.0,66,0.00,,,0.00,WUHU216HW,2013-09-13 10:15:00,
2013-09-13 06:20:00,55.9,44.7,30.18,NNW,338,0.0,0.0,66,0.00,,,0.00,WUHU216HW,2013-09-13 10:20:00,
2013-09-13 06:25:00,55.9,44.7,30.18,North,0,0.0,0.0,66,0.00,,,0.00,WUHU216HW,2013-09-13 10:25:00,
2013-09-13 06:30:00,55.9,44.7,30.18,NE,45,0.0,0.0,66,0.00,,,0.00,WUHU216HW,2013-09-13 10:30:00,
2013-09-13 06:35:00,55.9,44.7,30.18,NNE,23,0.0,0.0,66,0.00,,,0.00,WUHU216HW,2013-09-13 10:35:00,
2013-09-13 06:40:00,55.9,44.7,30.19,ENE,68,0.8,0.8,66,0.00,,,0.00,WUHU216HW,2013-09-13 10:40:00,
2013-09-13 06:45:00,55.9,44.7,30.19,NE,45,0.0,0.8,66,0.00,,,0.00,WUHU216HW,2013-09-13 10:45:00,
2013-09-13 06:50:00,55.9,44.7,30.19,NE,45,0.0,0.8,66,0.00,,,0.00,WUHU216HW,2013-09-13 10:50:00,
2013-09-13 06:55:00,55.9,44.7,30.19,NE,45,0.0,0.0,66,0.00,,,0.00,WUHU216HW,2013-09-13 10:55:00,
2013-09-13 07:00:00,55.9,44.7,30.20,NE,45,1.3,1.3,66,0.00,,,0.00,WUHU216HW,2013-09-13 11:00:00,
2013-09-13 07:05:00,55.9,44.7,30.20,NNE,23,0.0,1.3,66,0.00,,,0.00,WUHU216HW,2013-09-13 11:05:00,
2013-09-13 07:10:00,55.9,44.7,30.20,NE,45,0.0,1.3,66,0.00,,,0.00,WUHU216HW,2013-09-13 11:10:00,
2013-09-13 07:15:00,55.9,44.7,30.20,NE,45,0.0,0.0,66,0.00,,,0.00,WUHU216HW,2013-09-13 11:15:00,
2013-09-13 07:20:00,55.9,44.7,30.20,NNE,23,0.0,0.0,66,0.00,,,0.00,WUHU216HW,2013-09-13 11:20:00,
2013-09-13 07:25:00,55.9,44.7,30.20,ENE,68,0.8,0.8,66,0.00,,,0.00,WUHU216HW,2013-09-13 11:25:00,
2013-09-13 07:30:00,55.9,44.7,30.20,NE,45,0.0,0.8,66,0.00,,,0.00,WUHU216HW,2013-09-13 11:30:00,
2013-09-13 07:35:00,55.7,44.5,30.20,NNE,23,1.7,1.7,66,0.00,,,0.00,WUHU216HW,2013-09-13 11:35:00,
2013-09-13 07:40:00,55.7,44.5,30.20,NE,45,0.0,1.7,66,0.00,,,0.00,WUHU216HW,2013-09-13 11:40:00,
2013-09-13 07:45:00,55.7,44.5,30.20,NNE,23,0.0,0.0,66,0.00,,,0.00,WUHU216HW,2013-09-13 11:45:00,
2013-09-13 07:50:00,55.7,44.5,30.21,NE,45,0.0,0.8,66,0.00,,,0.00,WUHU216HW,2013-09-13 11:50:00,
2013-09-13 07:55:00,55.7,44.5,30.20,NE,45,0.0,0.8,66,0.00,,,0.00,WUHU216HW,2013-09-13 11:55:00,
2013-09-13 08:00:00,55.5,44.3,30.20,NNE,23,2.0,2.0,66,0.00,,,0.00,WUHU216HW,2013-09-13 12:00:00,
2013-09-13 08:05:00,55.5,44.3,30.21,ENE,68,0.0,2.0,66,0.00,,,0.00,WUHU216HW,2013-09-13 12:05:00,
2013-09-13 08:10:00,55.7,44.5,30.21,ESE,113,0.0,0.0,66,0.00,,,0.00,WUHU216HW,2013-09-13 12:10:00,
2013-09-13 08:15:00,55.9,44.8,30.21,ENE,68,0.8,2.4,66,0.00,,,0.00,WUHU216HW,2013-09-13 12:15:00,
2013-09-13 08:20:00,55.9,44.7,30.21,ENE,68,0.0,2.4,66,0.00,,,0.00,WUHU216HW,2013-09-13 12:20:00,
2013-09-13 08:25:00,56.1,44.8,30.21,ENE,68,1.1,1.7,66,0.00,,,0.00,WUHU216HW,2013-09-13 12:25:00,
2013-09-13 08:30:00,56.3,45.0,30.21,NE,45,0.0,1.7,66,0.00,,,0.00,WUHU216HW,2013-09-13 12:30:00,
2013-09-13 08:35:00,56.3,44.6,30.21,ESE,113,1.5,1.5,65,0.00,,,0.00,WUHU216HW,2013-09-13 12:35:00,
2013-09-13 08:40:00,56.3,44.6,30.22,NNE,23,0.0,1.7,65,0.00,,,0.00,WUHU216HW,2013-09-13 12:40:00,
2013-09-13 08:45:00,56.3,44.6,30.21,NE,45,0.0,1.7,65,0.00,,,0.00,WUHU216HW,2013-09-13 12:45:00,
2013-09-13 08:50:00,56.4,44.8,30.21,NE,45,0.0,0.0,65,0.00,,,0.00,WUHU216HW,2013-09-13 12:50:00,
2013-09-13 08:55:00,56.6,44.9,30.21,ENE,68,0.8,0.8,65,0.00,,,0.00,WUHU216HW,2013-09-13 12:55:00,
2013-09-13 09:00:00,56.8,45.1,30.21,NNE,23,0.6,6.4,65,0.00,,,0.00,WUHU216HW,2013-09-13 13:00:00,
2013-09-13 09:05:00,56.8,44.7,30.21,NE,45,0.0,6.4,64,0.00,,,0.00,WUHU216HW,2013-09-13 13:05:00,
2013-09-13 09:10:00,57.0,44.9,30.21,ENE,68,0.8,2.0,64,0.00,,,0.00,WUHU216HW,2013-09-13 13:10:00,
2013-09-13 09:15:00,57.2,45.3,30.21,NE,45,1.7,3.1,64,0.00,,,0.00,WUHU216HW,2013-09-13 13:15:00,
2013-09-13 09:54:00,58.8,45.3,30.22,North,0,5.1,5.1,61,0.00,,,0.00,WUHU216HW,2013-09-13 13:54:00,
2013-09-13 09:59:00,59.0,45.5,30.22,NNE,23,2.2,5.1,61,0.00,,,0.00,WUHU216HW,2013-09-13 13:59:00,
2013-09-13 10:04:00,59.3,45.5,30.22,NE,45,2.0,5.1,60,0.00,,,0.00,WUHU216HW,2013-09-13 14:04:00,
2013-09-13 10:09:00,60.0,46.2,30.22,NNE,23,0.6,2.2,60,0.00,,,0.00,WUHU216HW,2013-09-13 14:09:00,
2013-09-13 10:14:00,60.4,46.5,30.22,North,0,0.0,2.2,60,0.00,,,0.00,WUHU216HW,2013-09-13 14:14:00,
2013-09-13 10:19:00,60.9,46.6,30.22,NNE,23,0.0,0.8,59,0.00,,,0.00,WUHU216HW,2013-09-13 14:19:00,
2013-09-13 10:24:00,61.1,46.2,30.22,ESE,113,2.4,5.1,57,0.00,,,0.00,WUHU216HW,2013-09-13 14:24:00,
2013-09-13 10:29:00,61.1,45.3,30.23,NE,45,0.8,5.1,56,0.00,,,0.00,WUHU216HW,2013-09-13 14:29:00,
2013-09-13 10:34:00,61.3,45.4,30.23,NE,45,0.6,5.1,56,0.00,,,0.00,WUHU216HW,2013-09-13 14:34:00,
2013-09-13 10:39:00,61.1,45.3,30.23,ENE,68,2.4,3.1,56,0.00,,,0.00,WUHU216HW,2013-09-13 14:39:00,
2013-09-13 10:44:00,61.3,44.9,30.23,NNE,23,3.3,3.3,55,0.00,,,0.00,WUHU216HW,2013-09-13 14:44:00,
2013-09-13 10:49:00,61.1,44.8,30.23,North,0,1.1,3.3,55,0.00,,,0.00,WUHU216HW,2013-09-13 14:49:00,
2013-09-13 10:54:00,61.1,44.8,30.24,North,0,5.5,5.5,55,0.00,,,0.00,WUHU216HW,2013-09-13 14:54:00,
2013-09-13 10:59:00,61.3,45.4,30.24,NNE,23,0.0,5.5,56,0.00,,,0.00,WUHU216HW,2013-09-13 14:59:00,
2013-09-13 11:04:00,61.5,45.1,30.24,North,0,2.2,2.2,55,0.00,,,0.00,WUHU216HW,2013-09-13 15:04:00,
2013-09-13 11:09:00,61.8,45.4,30.24,NE,45,2.0,3.3,55,0.00,,,0.00,WUHU216HW,2013-09-13 15:09:00,
2013-09-13 11:14:00,62.4,45.3,30.24,NE,45,0.0,3.3,54,0.00,,,0.00,WUHU216HW,2013-09-13 15:14:00,
2013-09-13 11:19:00,63.1,46.1,30.24,North,0,10.0,10.0,54,0.00,,,0.00,WUHU216HW,2013-09-13 15:19:00,
2013-09-13 11:24:00,63.6,46.6,30.24,North,0,13.1,13.1,54,0.00,,,0.00,WUHU216HW,2013-09-13 15:24:00,
2013-09-13 11:29:00,64.0,46.6,30.25,NE,45,0.0,13.1,53,0.00,,,0.00,WUHU216HW,2013-09-13 15:29:00,
2013-09-13 11:34:00,64.5,46.9,30.24,NNE,23,2.6,2.6,53,0.00,,,0.00,WUHU216HW,2013-09-13 15:34:00,
2013-09-13 11:39:00,64.9,46.8,30.25,North,0,2.9,2.9,52,0.00,,,0.00,WUHU216HW,2013-09-13 15:39:00,
2013-09-13 11:44:00,65.3,46.7,30.24,North,0,2.2,2.9,51,0.00,,,0.00,WUHU216HW,2013-09-13 15:44:00,
2013-09-13 11:49:00,65.4,46.8,30.24,NNE,23,0.8,3.3,51,0.00,,,0.00,WUHU216HW,2013-09-13 15:49:00,
2013-09-13 11:54:00,65.4,46.8,30.24,NNE,23,0.0,4.2,51,0.00,,,0.00,WUHU216HW,2013-09-13 15:54:00,
2013-09-13 11:59:00,65.4,46.8,30.24,East,90,0.8,4.2,51,0.00,,,0.00,WUHU216HW,2013-09-13 15:59:00,
2013-09-13 12:04:00,65.6,47.0,30.24,NNE,23,2.0,2.0,51,0.00,,,0.00,WUHU216HW,2013-09-13 16:04:00,
2013-09-13 12:09:00,65.4,46.8,30.24,ENE,68,0.0,5.5,51,0.00,,,0.00,WUHU216HW,2013-09-13 16:09:00,
2013-09-13 12:14:00,65.3,46.7,30.24,North,0,2.2,5.5,51,0.00,,,0.00,WUHU216HW,2013-09-13 16:14:00,
2013-09-13 12:19:00,65.1,46.5,30.25,NE,45,0.0,8.7,51,0.00,,,0.00,WUHU216HW,2013-09-13 16:19:00,
2013-09-13 12:24:00,64.9,46.3,30.25,NNE,23,2.4,8.7,51,0.00,,,0.00,WUHU216HW,2013-09-13 16:24:00,
2013-09-13 12:29:00,64.9,46.3,30.25,North,0,3.8,7.1,51,0.00,,,0.00,WUHU216HW,2013-09-13 16:29:00,
2013-09-13 12:34:00,64.9,46.3,30.25,NE,45,0.6,7.3,51,0.00,,,0.00,WUHU216HW,2013-09-13 16:34:00,
2013-09-13 12:39:00,64.9,46.3,30.24,NNE,23,1.1,8.5,51,0.00,,,0.00,WUHU216HW,2013-09-13 16:39:00,
2013-09-13 12:44:00,64.9,46.3,30.25,North,0,3.1,8.5,51,0.00,,,0.00,WUHU216HW,2013-09-13 16:44:00,
2013-09-13 12:49:00,64.9,46.3,30.25,ENE,68,2.9,3.1,51,0.00,,,0.00,WUHU216HW,2013-09-13 16:49:00,
2013-09-13 12:54:00,64.7,46.1,30.24,NNW,338,2.6,8.2,51,0.00,,,0.00,WUHU216HW,2013-09-13 16:54:00,
2013-09-13 12:59:00,64.9,46.3,30.23,NNW,338,13.6,13.6,51,0.00,,,0.00,WUHU216HW,2013-09-13 16:59:00,
2013-09-13 13:04:00,64.7,46.1,30.23,North,0,7.8,13.6,51,0.00,,,0.00,WUHU216HW,2013-09-13 17:04:00,
2013-09-13 13:09:00,64.5,45.9,30.23,NNE,23,2.4,7.8,51,0.00,,,0.00,WUHU216HW,2013-09-13 17:09:00,
2013-09-13 13:14:00,64.5,45.9,30.23,East,90,6.0,6.0,51,0.00,,,0.00,WUHU216HW,2013-09-13 17:14:00,
2013-09-13 13:19:00,64.7,46.1,30.23,NNE,23,0.0,6.0,51,0.00,,,0.00,WUHU216HW,2013-09-13 17:19:00,
2013-09-13 13:24:00,64.7,46.1,30.23,NNE,23,1.1,6.0,51,0.00,,,0.00,WUHU216HW,2013-09-13 17:24:00,
2013-09-13 13:29:00,64.5,45.9,30.23,NNE,23,2.2,5.3,51,0.00,,,0.00,WUHU216HW,2013-09-13 17:29:00,
2013-09-13 13:34:00,64.5,45.9,30.23,NE,45,0.0,5.3,51,0.00,,,0.00,WUHU216HW,2013-09-13 17:34:00,
2013-09-13 13:39:00,64.2,45.6,30.23,NE,45,2.0,4.6,51,0.00,,,0.00,WUHU216HW,2013-09-13 17:39:00,
2013-09-13 13:44:00,64.4,45.8,30.24,NNW,338,13.4,13.4,51,0.00,,,0.00,WUHU216HW,2013-09-13 17:44:00,
2013-09-13 13:49:00,64.5,45.9,30.23,NNE,23,3.5,13.4,51,0.00,,,0.00,WUHU216HW,2013-09-13 17:49:00,
2013-09-13 13:54:00,64.5,45.9,30.23,NE,45,0.8,13.4,51,0.00,,,0.00,WUHU216HW,2013-09-13 17:54:00,
2013-09-13 13:59:00,65.1,46.0,30.23,North,0,5.1,5.1,50,0.00,,,0.00,WUHU216HW,2013-09-13 17:59:00,
2013-09-13 14:04:00,65.3,46.2,30.23,NE,45,5.1,5.1,50,0.00,,,0.00,WUHU216HW,2013-09-13 18:04:00,
2013-09-13 14:09:00,65.4,46.4,30.23,North,0,3.8,5.1,50,0.00,,,0.00,WUHU216HW,2013-09-13 18:09:00,
2013-09-13 14:14:00,66.2,46.5,30.23,North,0,2.9,5.1,49,0.00,,,0.00,WUHU216HW,2013-09-13 18:14:00,
2013-09-13 14:19:00,66.3,46.6,30.22,NE,45,0.0,4.4,49,0.00,,,0.00,WUHU216HW,2013-09-13 18:19:00,
2013-09-13 14:24:00,66.9,46.5,30.22,NE,45,0.0,5.8,48,0.00,,,0.00,WUHU216HW,2013-09-13 18:24:00,
2013-09-13 14:29:00,67.6,46.6,30.22,NNE,23,0.6,5.8,47,0.00,,,0.00,WUHU216HW,2013-09-13 18:29:00,
2013-09-13 14:34:00,67.6,46.6,30.23,NNW,338,3.1,3.1,47,0.00,,,0.00,WUHU216HW,2013-09-13 18:34:00,
2013-09-13 14:39:00,67.8,46.7,30.23,NNW,338,1.1,3.1,47,0.00,,,0.00,WUHU216HW,2013-09-13 18:39:00,
2013-09-13 14:44:00,68.1,47.1,30.23,NNE,23,1.3,2.4,47,0.00,,,0.00,WUHU216HW,2013-09-13 18:44:00,
2013-09-13 14:49:00,68.5,46.8,30.23,NNW,338,6.4,6.4,46,0.00,,,0.00,WUHU216HW,2013-09-13 18:49:00,
2013-09-13 14:54:00,68.7,47.0,30.23,NNE,23,0.0,6.4,46,0.00,,,0.00,WUHU216HW,2013-09-13 18:54:00,
2013-09-13 14:59:00,69.4,47.0,30.23,North,0,0.0,5.8,45,0.00,,,0.00,WUHU216HW,2013-09-13 18:59:00,
2013-09-13 15:04:00,69.6,47.2,30.23,North,0,3.1,9.6,45,0.00,,,0.00,WUHU216HW,2013-09-13 19:04:00,
2013-09-13 15:09:00,69.9,47.2,30.23,NNW,338,3.1,9.6,45,0.00,,,0.00,WUHU216HW,2013-09-13 19:09:00,
2013-09-13 15:14:00,70.5,48.0,30.22,ENE,68,2.4,3.8,45,0.00,,,0.00,WUHU216HW,2013-09-13 19:14:00,
2013-09-13 15:19:00,70.7,47.6,30.22,North,0,6.2,6.2,44,0.00,,,0.00,WUHU216HW,2013-09-13 19:19:00,
2013-09-13 15:24:00,70.8,47.7,30.22,NE,45,0.0,6.2,44,0.00,,,0.00,WUHU216HW,2013-09-13 19:24:00,
2013-09-13 15:29:00,70.8,47.1,30.22,NNE,23,0.0,6.2,43,0.00,,,0.00,WUHU216HW,2013-09-13 19:29:00,
2013-09-13 15:34:00,71.2,47.4,30.22,NNE,23,1.3,3.5,43,0.00,,,0.00,WUHU216HW,2013-09-13 19:34:00,
2013-09-13 15:39:00,71.4,48.2,30.22,NNE,23,0.0,2.4,44,0.00,,,0.00,WUHU216HW,2013-09-13 19:39:00,
2013-09-13 15:44:00,71.7,47.9,30.22,NNE,23,1.7,2.4,43,0.00,,,0.00,WUHU216HW,2013-09-13 19:44:00,
2013-09-13 15:49:00,71.9,48.1,30.21,NNE,23,1.5,3.1,43,0.00,,,0.00,WUHU216HW,2013-09-13 19:49:00,
2013-09-13 15:54:00,71.9,48.1,30.22,North,0,1.3,7.3,43,0.00,,,0.00,WUHU216HW,2013-09-13 19:54:00,
2013-09-13 15:59:00,71.9,47.5,30.22,NNE,23,2.9,7.3,42,0.00,,,0.00,WUHU216HW,2013-09-13 19:59:00,
2013-09-13 16:04:00,71.9,46.9,30.21,NNE,23,5.5,6.0,41,0.00,,,0.00,WUHU216HW,2013-09-13 20:04:00,
2013-09-13 16:09:00,72.1,47.1,30.21,NNE,23,2.0,5.5,41,0.00,,,0.00,WUHU216HW,2013-09-13 20:09:00,
2013-09-13 16:14:00,72.3,47.2,30.21,North,0,0.0,6.2,41,0.00,,,0.00,WUHU216HW,2013-09-13 20:14:00,
2013-09-13 16:19:00,72.5,47.4,30.22,North,0,7.6,7.6,41,0.00,,,0.00,WUHU216HW,2013-09-13 20:19:00,
2013-09-13 16:24:00,72.6,47.6,30.21,North,0,2.6,7.6,41,0.00,,,0.00,WUHU216HW,2013-09-13 20:24:00,
2013-09-13 16:29:00,73.0,47.9,30.21,NNW,338,0.0,2.9,41,0.00,,,0.00,WUHU216HW,2013-09-13 20:29:00,
2013-09-13 16:34:00,73.0,47.3,30.21,NE,45,5.5,5.5,40,0.00,,,0.00,WUHU216HW,2013-09-13 20:34:00,
2013-09-13 16:39:00,73.2,48.0,30.21,North,0,3.3,5.5,41,0.00,,,0.00,WUHU216HW,2013-09-13 20:39:00,
2013-09-13 16:44:00,73.2,47.4,30.21,ENE,68,6.0,6.0,40,0.00,,,0.00,WUHU216HW,2013-09-13 20:44:00,
2013-09-13 16:49:00,73.2,47.4,30.21,North,0,6.2,6.2,40,0.00,,,0.00,WUHU216HW,2013-09-13 20:49:00,
2013-09-13 16:54:00,73.2,47.4,30.21,NNE,23,0.0,6.2,40,0.00,,,0.00,WUHU216HW,2013-09-13 20:54:00,
2013-09-13 16:59:00,73.4,48.2,30.21,North,0,8.0,8.0,41,0.00,,,0.00,WUHU216HW,2013-09-13 20:59:00,
2013-09-13 17:04:00,73.4,47.6,30.21,NNE,23,1.5,8.0,40,0.00,,,0.00,WUHU216HW,2013-09-13 21:04:00,
2013-09-13 17:09:00,73.2,47.4,30.21,North,0,0.0,8.0,40,0.00,,,0.00,WUHU216HW,2013-09-13 21:09:00,
2013-09-13 17:14:00,73.0,47.3,30.21,North,0,0.8,1.3,40,0.00,,,0.00,WUHU216HW,2013-09-13 21:14:00,
2013-09-13 17:19:00,73.0,47.3,30.21,West,270,0.8,2.0,40,0.00,,,0.00,WUHU216HW,2013-09-13 21:19:00,
2013-09-13 17:24:00,72.8,47.1,30.21,NNE,23,0.0,3.1,40,0.00,,,0.00,WUHU216HW,2013-09-13 21:24:00,
2013-09-13 17:29:00,72.5,47.4,30.21,WSW,248,3.8,3.8,41,0.00,,,0.00,WUHU216HW,2013-09-13 21:29:00,
2013-09-13 17:34:00,72.1,47.1,30.21,East,90,1.7,3.8,41,0.00,,,0.00,WUHU216HW,2013-09-13 21:34:00,
2013-09-13 17:39:00,71.9,46.9,30.21,NNW,338,1.3,3.8,41,0.00,,,0.00,WUHU216HW,2013-09-13 21:39:00,
2013-09-13 17:44:00,71.7,46.7,30.21,NNE,23,2.0,4.0,41,0.00,,,0.00,WUHU216HW,2013-09-13 21:44:00,
2013-09-13 17:49:00,72.1,47.1,30.21,NE,45,0.0,4.0,41,0.00,,,0.00,WUHU216HW,2013-09-13 21:49:00,
2013-09-13 17:54:00,72.1,47.7,30.21,North,0,1.1,2.0,42,0.00,,,0.00,WUHU216HW,2013-09-13 21:54:00,
2013-09-13 17:59:00,71.9,47.5,30.21,North,0,3.5,3.5,42,0.00,,,0.00,WUHU216HW,2013-09-13 21:59:00,
2013-09-13 18:04:00,71.7,47.3,30.21,North,0,0.8,3.5,42,0.00,,,0.00,WUHU216HW,2013-09-13 22:04:00,
2013-09-13 18:09:00,71.4,47.0,30.21,NNW,338,1.5,3.5,42,0.00,,,0.00,WUHU216HW,2013-09-13 22:09:00,
2013-09-13 18:14:00,71.4,47.6,30.21,NE,45,1.7,2.0,43,0.00,,,0.00,WUHU216HW,2013-09-13 22:14:00,
2013-09-13 18:19:00,70.8,47.1,30.22,NNW,338,1.1,2.0,43,0.00,,,0.00,WUHU216HW,2013-09-13 22:19:00,
2013-09-13 18:24:00,70.5,46.8,30.22,North,0,6.0,6.0,43,0.00,,,0.00,WUHU216HW,2013-09-13 22:24:00,
2013-09-13 18:29:00,70.1,46.5,30.22,North,0,0.0,6.0,43,0.00,,,0.00,WUHU216HW,2013-09-13 22:29:00,
2013-09-13 18:34:00,70.1,47.1,30.22,NNE,23,0.0,4.6,44,0.00,,,0.00,WUHU216HW,2013-09-13 22:34:00,
2013-09-13 18:39:00,69.9,46.9,30.21,NNW,338,1.1,2.0,44,0.00,,,0.00,WUHU216HW,2013-09-13 22:39:00,
2013-09-13 18:44:00,69.4,46.4,30.21,NNE,23,1.1,2.0,44,0.00,,,0.00,WUHU216HW,2013-09-13 22:44:00,
2013-09-13 18:49:00,69.0,46.1,30.22,North,0,2.0,2.0,44,0.00,,,0.00,WUHU216HW,2013-09-13 22:49:00,
2013-09-13 18:54:00,68.7,45.8,30.22,NNW,338,1.3,2.9,44,0.00,,,0.00,WUHU216HW,2013-09-13 22:54:00,
2013-09-13 18:59:00,68.1,45.9,30.22,NNE,23,0.0,2.9,45,0.00,,,0.00,WUHU216HW,2013-09-13 22:59:00,
2013-09-13 19:04:00,67.6,46.0,30.22,North,0,0.0,2.0,46,0.00,,,0.00,WUHU216HW,2013-09-13 23:04:00,
2013-09-13 19:09:00,67.2,45.7,30.21,NNW,338,3.3,3.3,46,0.00,,,0.00,WUHU216HW,2013-09-13 23:09:00,
2013-09-13 19:14:00,66.5,45.6,30.22,NE,45,3.8,3.8,47,0.00,,,0.00,WUHU216HW,2013-09-13 23:14:00,
2013-09-13 19:19:00,66.0,45.7,30.22,North,0,1.5,3.8,48,0.00,,,0.00,WUHU216HW,2013-09-13 23:19:00,
2013-09-13 19:24:00,65.4,45.2,30.22,North,0,3.5,3.8,48,0.00,,,0.00,WUHU216HW,2013-09-13 23:24:00,
2013-09-13 19:29:00,64.7,45.6,30.22,North,0,0.0,3.5,50,0.00,,,0.00,WUHU216HW,2013-09-13 23:29:00,
2013-09-13 19:34:00,64.4,45.3,30.22,NNW,338,0.0,4.4,50,0.00,,,0.00,WUHU216HW,2013-09-13 23:34:00,
2013-09-13 19:39:00,64.0,45.4,30.22,North,0,0.0,4.4,51,0.00,,,0.00,WUHU216HW,2013-09-13 23:39:00,
2013-09-13 19:44:00,63.6,45.1,30.22,North,0,0.0,3.1,51,0.00,,,0.00,WUHU216HW,2013-09-13 23:44:00,
2013-09-13 19:49:00,63.3,45.3,30.22,NNE,23,0.0,0.0,52,0.00,,,0.00,WUHU216HW,2013-09-13 23:49:00,
2013-09-13 19:54:00,63.1,45.6,30.22,North,0,0.0,1.3,53,0.00,,,0.00,WUHU216HW,2013-09-13 23:54:00,
2013-09-13 19:59:00,62.7,45.3,30.22,North,0,0.0,1.3,53,0.00,,,0.00,WUHU216HW,2013-09-13 23:59:00,
2013-09-13 20:04:00,62.6,45.1,30.22,North,0,0.0,0.0,53,0.00,,,0.00,WUHU216HW,2013-09-14 00:04:00,
2013-09-13 20:09:00,62.4,44.9,30.22,NNE,23,0.0,0.0,53,0.00,,,0.00,WUHU216HW,2013-09-14 00:09:00,
2013-09-13 20:14:00,62.2,45.3,30.22,North,0,0.0,0.0,54,0.00,,,0.00,WUHU216HW,2013-09-14 00:14:00,
2013-09-13 20:19:00,62.0,45.1,30.22,North,0,0.0,0.0,54,0.00,,,0.00,WUHU216HW,2013-09-14 00:19:00,
2013-09-13 20:24:00,61.7,45.3,30.22,North,0,0.0,0.0,55,0.00,,,0.00,WUHU216HW,2013-09-14 00:24:00,
2013-09-13 20:29:00,61.5,45.1,30.22,North,0,0.0,0.0,55,0.00,,,0.00,WUHU216HW,2013-09-14 00:29:00,
2013-09-13 20:34:00,61.1,44.8,30.22,North,0,0.0,0.0,55,0.00,,,0.00,WUHU216HW,2013-09-14 00:34:00,
2013-09-13 20:39:00,60.9,44.8,30.22,North,0,0.0,0.0,56,0.00,,,0.00,WUHU216HW,2013-09-14 00:39:00,
2013-09-13 20:44:00,60.6,45.3,30.23,North,0,0.0,0.0,57,0.00,,,0.00,WUHU216HW,2013-09-14 00:44:00,
2013-09-13 20:49:00,60.4,45.1,30.23,North,0,0.0,0.0,57,0.00,,,0.00,WUHU216HW,2013-09-14 00:49:00,
2013-09-13 20:54:00,60.0,44.9,30.23,North,0,0.0,0.0,58,0.00,,,0.00,WUHU216HW,2013-09-14 00:54:00,
2013-09-13 20:59:00,59.5,44.7,30.23,North,0,0.0,0.0,58,0.00,,,0.00,WUHU216HW,2013-09-14 00:59:00,
2013-09-13 21:04:00,59.1,44.8,30.23,North,0,0.0,0.0,59,0.00,,,0.00,WUHU216HW,2013-09-14 01:04:00,
2013-09-13 21:09:00,58.8,44.5,30.23,North,0,0.0,0.0,59,0.00,,,0.00,WUHU216HW,2013-09-14 01:09:00,
2013-09-13 21:14:00,58.8,44.5,30.23,North,0,0.0,0.0,59,0.00,,,0.00,WUHU216HW,2013-09-14 01:14:00,
2013-09-13 21:19:00,58.6,44.8,30.23,North,0,0.0,0.0,60,0.00,,,0.00,WUHU216HW,2013-09-14 01:19:00,
2013-09-13 21:24:00,58.1,44.3,30.23,North,0,0.0,0.0,60,0.00,,,0.00,WUHU216HW,2013-09-14 01:24:00,
2013-09-13 21:29:00,57.9,44.5,30.23,North,0,0.0,0.0,61,0.00,,,0.00,WUHU216HW,2013-09-14 01:29:00,
2013-09-13 21:34:00,57.7,44.4,30.24,North,0,0.0,0.0,61,0.00,,,0.00,WUHU216HW,2013-09-14 01:34:00,
2013-09-13 21:39:00,57.3,44.4,30.24,North,0,0.0,0.0,62,0.00,,,0.00,WUHU216HW,2013-09-14 01:39:00,
2013-09-13 21:44:00,57.0,44.1,30.24,North,0,0.0,0.0,62,0.00,,,0.00,WUHU216HW,2013-09-14 01:44:00,
2013-09-13 21:49:00,57.0,44.1,30.23,North,0,0.0,0.0,62,0.00,,,0.00,WUHU216HW,2013-09-14 01:49:00,
2013-09-13 21:54:00,56.6,44.1,30.23,North,0,0.0,0.0,63,0.00,,,0.00,WUHU216HW,2013-09-14 01:54:00,
2013-09-13 21:59:00,56.4,44.4,30.23,North,0,0.0,0.0,64,0.00,,,0.00,WUHU216HW,2013-09-14 01:59:00,
2013-09-13 22:04:00,56.3,44.2,30.23,North,0,0.0,0.0,64,0.00,,,0.00,WUHU216HW,2013-09-14 02:04:00,
2013-09-13 22:09:00,55.9,44.1,30.24,North,0,0.0,0.0,64,0.00,,,0.00,WUHU216HW,2013-09-14 02:09:00,
2013-09-13 22:14:00,55.5,44.3,30.24,North,0,0.0,0.0,66,0.00,,,0.00,WUHU216HW,2013-09-14 02:14:00,
2013-09-13 22:19:00,55.2,43.6,30.23,North,0,0.0,0.0,65,0.00,,,0.00,WUHU216HW,2013-09-14 02:19:00,
2013-09-13 22:24:00,54.6,43.1,30.23,North,0,0.0,0.0,65,0.00,,,0.00,WUHU216HW,2013-09-14 02:24:00,
2013-09-13 22:29:00,54.1,42.9,30.23,North,0,0.0,0.0,66,0.00,,,0.00,WUHU216HW,2013-09-14 02:29:00,
2013-09-13 22:34:00,53.9,43.6,30.23,North,0,0.0,0.0,68,0.00,,,0.00,WUHU216HW,2013-09-14 02:34:00,
2013-09-13 22:39:00,53.7,43.4,30.23,North,0,0.0,0.0,68,0.00,,,0.00,WUHU216HW,2013-09-14 02:39:00,
2013-09-13 22:44:00,53.4,43.0,30.23,North,0,0.0,0.0,68,0.00,,,0.00,WUHU216HW,2013-09-14 02:44:00,
2013-09-13 22:49:00,53.2,43.3,30.23,North,0,0.0,0.0,69,0.00,,,0.00,WUHU216HW,2013-09-14 02:49:00,
2013-09-13 22:54:00,52.8,43.4,30.23,North,0,0.0,0.0,70,0.00,,,0.00,WUHU216HW,2013-09-14 02:54:00,
2013-09-13 22:59:00,52.5,43.0,30.23,North,0,0.0,0.0,70,0.00,,,0.00,WUHU216HW,2013-09-14 02:59:00,
2013-09-13 23:04:00,52.5,43.0,30.23,North,0,0.0,0.0,70,0.00,,,0.00,WUHU216HW,2013-09-14 03:04:00,
2013-09-13 23:09:00,52.3,42.9,30.23,North,0,0.0,0.0,70,0.00,,,0.00,WUHU216HW,2013-09-14 03:09:00,
2013-09-13 23:14:00,52.1,42.7,30.23,North,0,0.0,0.0,70,0.00,,,0.00,WUHU216HW,2013-09-14 03:14:00,
2013-09-13 23:19:00,52.1,43.1,30.23,North,0,0.0,0.0,71,0.00,,,0.00,WUHU216HW,2013-09-14 03:19:00,
2013-09-13 23:24:00,51.9,42.9,30.23,North,0,0.0,0.0,71,0.00,,,0.00,WUHU216HW,2013-09-14 03:24:00,
2013-09-13 23:29:00,51.9,42.9,30.23,North,0,0.0,0.0,71,0.00,,,0.00,WUHU216HW,2013-09-14 03:29:00,
2013-09-13 23:34:00,51.9,43.2,30.23,North,0,0.0,0.0,72,0.00,,,0.00,WUHU216HW,2013-09-14 03:34:00,
2013-09-13 23:39:00,51.6,42.9,30.23,North,0,0.0,0.0,72,0.00,,,0.00,WUHU216HW,2013-09-14 03:39:00,
2013-09-13 23:44:00,51.4,42.7,30.23,North,0,0.0,0.0,72,0.00,,,0.00,WUHU216HW,2013-09-14 03:44:00,
2013-09-13 23:49:00,51.4,42.7,30.23,North,0,0.0,0.0,72,0.00,,,0.00,WUHU216HW,2013-09-14 03:49:00,
2013-09-13 23:54:00,51.0,42.4,30.23,North,0,0.0,0.0,72,0.00,,,0.00,WUHU216HW,2013-09-14 03:54:00,
2013-09-13 23:59:00,50.9,42.2,30.23,North,0,0.0,0.0,72,0.00,,,0.00,WUHU216HW,2013-09-14 03:59:00,